Weather History for Fort Leonard Wood, MO

Change the Weather History Date:

Saturday, December 7, 2013

  Actual Average Record
Temperature  
Mean Temperature 12 °F -  
Max Temperature 19 °F 45 °F 62 °F (2001)
Min Temperature 5 °F 32 °F 5 °F (2013)
Degree Days  
Heating Degree Days 53    
Moisture  
Dew Point 5 °F    
Average Humidity 69    
Maximum Humidity 87    
Minimum Humidity 52    
Precipitation  
Precipitation 0.00 in - - ()
Sea Level Pressure  
Sea Level Pressure 30.57 in    
Wind  
Wind Speed 8 mph (NE)    
Max Wind Speed 13 mph    
Max Gust Speed -    
Visibility 10 miles    
Events Snow    
Averages and records for this station are not official NWS values.
T = Trace of Precipitation, MM = Missing Value Source: NWS Daily Summary

Daily Weather History Graph

Daily Weather History Graph

Search for Another Location

Airport:

Trip Planner

Search our weather history database for the weather conditions in past years. The results will help you decide how hot, cold, wet, or windy it might be!

Date:

Astronomy

Dec. 07, 2013 Rise Set
Actual Time 7:10 AM CST 4:49 PM CST
Civil Twilight 6:41 AM CST 5:18 PM CST
Nautical Twilight 6:08 AM CST 5:51 PM CST
Astronomical Twilight 5:37 AM CST 6:23 PM CST
Moon 10:59 AM CST (12/7) 10:27 PM CST (12/7)
Length of Visible Light 10h 37m
Length of Day
9h 38m
Waxing Crescent, 29% of the Moon is Illuminated
Dec 7
Waxing Crescent
Dec 9
First Quarter
Dec 17
Full
Dec 25
Last Quarter
Jan 1
New

Hourly Weather History & Observations

Time (CST) Temp. Windchill Dew Point Humidity Pressure Visibility Wind Dir Wind Speed Gust Speed Precip Events Conditions
12:58 AM 10.4 °F -1.5 °F 0.5 °F 64% 30.62 in 10.0 mi North 8.1 mph - N/A   Clear
1:58 AM 9.7 °F -2.4 °F 0.3 °F 66% 30.64 in 10.0 mi North 8.1 mph - N/A   Clear
2:58 AM 8.8 °F -3.5 °F 0.7 °F 70% 30.64 in 10.0 mi North 8.1 mph - N/A   Clear
3:58 AM 7.5 °F -2.6 °F 0.9 °F 74% 30.66 in 10.0 mi North 5.8 mph - N/A   Clear
4:58 AM 6.8 °F -3.5 °F 1.2 °F 78% 30.66 in 10.0 mi North 5.8 mph - N/A   Clear
5:58 AM 6.1 °F -5.6 °F 1.2 °F 80% 30.67 in 10.0 mi North 6.9 mph - N/A   Clear
6:58 AM 5.9 °F -4.5 °F 1.8 °F 83% 30.69 in 10.0 mi North 5.8 mph - N/A   Clear
7:58 AM 6.1 °F -5.6 °F 1.9 °F 83% 30.70 in 10.0 mi North 6.9 mph - N/A   Clear
8:58 AM 9.7 °F -4.2 °F 3.6 °F 76% 30.71 in 10.0 mi NNE 10.4 mph - N/A   Clear
9:58 AM 11.8 °F 0.3 °F 3.9 °F 71% 30.72 in 10.0 mi ENE 8.1 mph - N/A   Clear
10:58 AM 14.5 °F 3.6 °F 4.1 °F 63% 30.70 in 10.0 mi NE 8.1 mph - N/A   Clear
11:58 AM 17.1 °F 7.6 °F 4.1 °F 57% 30.68 in 10.0 mi NE 6.9 mph - N/A   Clear
12:58 PM 18.7 °F 8.6 °F 3.9 °F 53% 30.63 in 10.0 mi NE 8.1 mph - N/A   Clear
1:58 PM 19.6 °F 9.7 °F 4.6 °F 52% 30.59 in 10.0 mi NE 8.1 mph - N/A   Clear
2:58 PM 19.9 °F 12.1 °F 4.6 °F 52% 30.60 in 10.0 mi NE 5.8 mph - N/A   Clear
3:58 PM 19.2 °F 8.4 °F 4.5 °F 53% 30.57 in 10.0 mi ENE 9.2 mph - N/A   Clear
4:58 PM 18.3 °F 7.3 °F 5.5 °F 57% 30.52 in 10.0 mi NE 9.2 mph - N/A   Clear
5:58 PM 17.6 °F 10.7 °F 5.5 °F 59% 30.54 in 10.0 mi NE 4.6 mph - N/A   Scattered Clouds
6:58 PM 17.2 °F 8.9 °F 5.9 °F 61% 30.55 in 10.0 mi ENE 5.8 mph - N/A   Mostly Cloudy
7:58 PM 17.8 °F 9.6 °F 6.8 °F 62% 30.53 in 10.0 mi NE 5.8 mph - N/A   Overcast
8:58 PM 17.8 °F 9.6 °F 7.3 °F 64% 30.52 in 10.0 mi East 5.8 mph - N/A   Overcast
9:58 PM 17.8 °F 7.5 °F 8.2 °F 66% 30.50 in 10.0 mi East 8.1 mph - N/A   Mostly Cloudy
10:10 PM 17.6 °F 5.0 °F 8.6 °F 68% 30.40 in 10.0 mi East 11.5 mph - N/A Snow Light Snow
10:20 PM 17.6 °F 4.3 °F 10.4 °F 73% 30.40 in 3.0 mi East 12.7 mph - N/A Snow Light Snow
10:35 PM 15.8 °F 4.2 °F 12.2 °F 86% 30.40 in 8.0 mi East 9.2 mph - N/A Snow Light Snow
10:58 PM 16.3 °F 5.7 °F 13.1 °F 87% 30.46 in 10.0 mi ENE 8.1 mph - 0.00 in Snow Light Snow
11:23 PM 15.8 °F 2.7 °F 12.2 °F 86% 30.37 in 10.0 mi East 11.5 mph - N/A   Overcast
11:58 PM 16.3 °F 7.8 °F 13.1 °F 87% 30.41 in 10.0 mi East 5.8 mph - 0.00 in   Overcast